Concord, NH

2:19 PM EDT on May 25, 2017 (GMT -0400)
Concord Municipal

Weather History for KCON - October, 2011

Change the Weather History Date:

Saturday, October 15, 2011

  Actual Average Record
Temperature  
Mean Temperature 55 °F 48 °F  
Max Temperature 63 °F 61 °F 85 °F (1956)
Min Temperature 46 °F 36 °F 22 °F (1939)
Degree Days  
Heating Degree Days 10 17  
Month to date heating degree days 136 214  
Since 1 July heating degree days 243 449  
Cooling Degree Days 0 0  
Month to date cooling degree days 0 0  
Year to date cooling degree days 561 450  
Growing Degree Days 8 (Base 50)    
Moisture  
Dew Point 57 °F    
Average Humidity 70    
Maximum Humidity 97    
Minimum Humidity 43    
Precipitation  
Precipitation 0.05 in 0.14 in 2.73 in (2005)
Month to date precipitation 3.78 1.97  
Year to date precipitation 43.87 31.62  
Snow  
Snow 0.00 in 0.00 in T in (1961)
Month to date snowfall 0.0 0.0  
Since 1 July snowfall 0.0 0.0  
Since 1 September snowfall 0.0 0.0  
Snow Depth 0.00 in    
Sea Level Pressure  
Sea Level Pressure 30.05 in    
Wind  
Wind Speed 12 mph (SSW)    
Max Wind Speed 28 mph    
Max Gust Speed 39 mph    
Visibility 9 miles    
Events Rain    
T = Trace of Precipitation, MM = Missing Value Source: NWS Daily Summary

Daily Weather History Graph

Daily Weather History Graph

Search for Another Location

Airport or City:

Trip Planner

Search our weather history database for the weather conditions in past years. The results will help you decide how hot, cold, wet, or windy it might be!

Date:

Astronomy

Oct. 15, 2011 Rise Set
Actual Time 6:59 AM EDT 6:03 PM EDT
Civil Twilight 6:30 AM EDT 6:32 PM EDT
Nautical Twilight 5:57 AM EDT 7:05 PM EDT
Astronomical Twilight 5:24 AM EDT 7:38 PM EDT
Moon 7:51 PM EDT (10/15) 10:27 AM EDT (10/15)
Length of Visible Light 12h 01m
Length of Day
11h 04m
Waning Gibbous, 89% of the Moon is Illuminated
Oct 15
Waning Gibbous
Oct 19
Last Quarter
Oct 26
New
Nov 2
First Quarter
Nov 10
Full

Hourly Weather History & Observations

Time (EDT) Temp. Windchill Dew Point Humidity Pressure Visibility Wind Dir Wind Speed Gust Speed Precip Events Conditions
12:00 AM 62.6 °F - 60.8 °F 94% 30.40 in 10.0 mi SSE 8.1 mph - N/A   Overcast
12:05 AM 62.6 °F - 60.8 °F 94% 30.40 in 10.0 mi SSE 6.9 mph - N/A   Overcast
12:10 AM 62.6 °F - 60.8 °F 94% 30.40 in 10.0 mi SSE 6.9 mph - N/A   Overcast
12:15 AM 60.8 °F - 60.8 °F 100% 30.40 in 10.0 mi South 6.9 mph - N/A   Overcast
12:19 AM 60.8 °F - 60.8 °F 100% 29.26 in 10.0 mi South 8.1 mph - N/A   Overcast
12:20 AM 60.8 °F - 60.8 °F 100% 30.40 in 10.0 mi South 8.1 mph - N/A   Overcast
12:25 AM 60.8 °F - 60.8 °F 100% 29.26 in 10.0 mi South 8.1 mph - N/A   Overcast
12:30 AM 60.8 °F - 60.8 °F 100% 29.26 in 10.0 mi South 8.1 mph - N/A   Overcast
12:32 AM 60.8 °F - 60.8 °F 100% 29.26 in 10.0 mi South 9.2 mph - N/A   Overcast
12:35 AM 60.8 °F - 60.8 °F 100% 29.26 in 10.0 mi South 10.4 mph - N/A   Overcast
12:40 AM 60.8 °F - 59.0 °F 94% 29.26 in 10.0 mi South 9.2 mph - N/A   Overcast
12:45 AM 60.8 °F - 59.0 °F 94% 29.26 in 10.0 mi South 9.2 mph - N/A   Overcast
12:50 AM 60.8 °F - 59.0 °F 94% 30.40 in 8.0 mi South 10.4 mph - N/A   Overcast
12:51 AM 61.0 °F - 59.0 °F 93% 29.27 in 6.0 mi South 11.5 mph 23.0 mph 0.00 in Rain Light Rain
1:00 AM 57.2 °F - 55.4 °F 94% 30.40 in 4.0 mi WSW 16.1 mph - 0.01 in   Overcast
1:05 AM 57.2 °F - 55.4 °F 94% 30.40 in 5.0 mi WSW 12.7 mph - 0.02 in   Overcast
1:10 AM 57.2 °F - 55.4 °F 94% 30.40 in 7.0 mi WSW 13.8 mph - 0.02 in   Overcast
1:15 AM 57.2 °F - 53.6 °F 88% 30.40 in 9.0 mi WSW 13.8 mph - 0.03 in   Overcast
1:20 AM 57.2 °F - 53.6 °F 88% 30.40 in 10.0 mi SW 10.4 mph - 0.03 in   Overcast
1:25 AM 57.2 °F - 53.6 °F 88% 30.40 in 10.0 mi WSW 13.8 mph 19.6 mph 0.03 in   Mostly Cloudy
1:30 AM 57.2 °F - 53.6 °F 88% 30.40 in 10.0 mi SW 10.4 mph - 0.03 in   Mostly Cloudy
1:35 AM 55.4 °F - 53.6 °F 94% 30.40 in 10.0 mi SW 11.5 mph - 0.03 in   Mostly Cloudy
1:40 AM 55.4 °F - 53.6 °F 94% 30.40 in 10.0 mi SW 11.5 mph - 0.03 in   Mostly Cloudy
1:45 AM 55.4 °F - 53.6 °F 94% 30.40 in 10.0 mi SW 12.7 mph - 0.03 in   Mostly Cloudy
1:50 AM 55.4 °F - 53.6 °F 94% 30.40 in 10.0 mi SW 11.5 mph - 0.03 in   Mostly Cloudy
1:51 AM 55.9 °F - 53.1 °F 90% 29.32 in 10.0 mi SW 11.5 mph - 0.03 in   Mostly Cloudy
1:55 AM 55.4 °F - 51.8 °F 88% 30.40 in 10.0 mi SW 11.5 mph - N/A   Overcast
2:00 AM 55.4 °F - 51.8 °F 88% 30.40 in 10.0 mi SW 12.7 mph 18.4 mph N/A   Overcast
2:05 AM 55.4 °F - 51.8 °F 88% 30.40 in 10.0 mi SW 8.1 mph - N/A   Mostly Cloudy
2:10 AM 55.4 °F - 51.8 °F 88% 30.40 in 10.0 mi SW 12.7 mph 19.6 mph N/A   Mostly Cloudy
2:15 AM 55.4 °F - 51.8 °F 88% 30.40 in 10.0 mi SW 9.2 mph - N/A   Overcast
2:20 AM 55.4 °F - 51.8 °F 88% 30.40 in 10.0 mi SW 12.7 mph - N/A   Overcast
2:25 AM 55.4 °F - 51.8 °F 88% 30.40 in 10.0 mi SW 8.1 mph - N/A   Mostly Cloudy
2:30 AM 53.6 °F - 51.8 °F 94% 30.40 in 10.0 mi SW 10.4 mph 17.3 mph N/A   Scattered Clouds
2:35 AM 55.4 °F - 51.8 °F 88% 30.40 in 10.0 mi SW 13.8 mph - N/A   Scattered Clouds
2:40 AM 55.4 °F - 51.8 °F 88% 30.40 in 10.0 mi SW 12.7 mph 18.4 mph N/A   Mostly Cloudy
2:45 AM 53.6 °F - 50.0 °F 88% 30.40 in 10.0 mi SW 11.5 mph 17.3 mph N/A   Mostly Cloudy
2:50 AM 53.6 °F - 50.0 °F 88% 30.40 in 10.0 mi SSW 11.5 mph - N/A   Scattered Clouds
2:51 AM 54.0 °F - 50.0 °F 86% 29.35 in 10.0 mi SW 11.5 mph - N/A   Scattered Clouds
2:55 AM 53.6 °F - 50.0 °F 88% 30.40 in 10.0 mi SW 11.5 mph - N/A   Mostly Cloudy
3:00 AM 53.6 °F - 50.0 °F 88% 30.40 in 10.0 mi SW 16.1 mph 21.9 mph N/A   Mostly Cloudy
3:05 AM 53.6 °F - 50.0 °F 88% 30.40 in 10.0 mi SW 12.7 mph 18.4 mph N/A   Mostly Cloudy
3:10 AM 53.6 °F - 50.0 °F 88% 30.40 in 10.0 mi SW 13.8 mph - N/A   Mostly Cloudy
3:15 AM 53.6 °F - 48.2 °F 82% 30.40 in 10.0 mi SW 13.8 mph - N/A   Mostly Cloudy
3:20 AM 53.6 °F - 48.2 °F 82% 30.40 in 10.0 mi SW 10.4 mph - N/A   Mostly Cloudy
3:25 AM 53.6 °F - 48.2 °F 82% 30.40 in 10.0 mi SW 11.5 mph - N/A   Mostly Cloudy
3:30 AM 53.6 °F - 48.2 °F 82% 30.40 in 10.0 mi SW 12.7 mph - N/A   Mostly Cloudy
3:35 AM 53.6 °F - 48.2 °F 82% 30.40 in 10.0 mi SW 12.7 mph - N/A   Mostly Cloudy
3:40 AM 53.6 °F - 48.2 °F 82% 30.40 in 10.0 mi SW 11.5 mph - N/A   Mostly Cloudy
3:45 AM 53.6 °F - 48.2 °F 82% 30.40 in 10.0 mi SW 9.2 mph - N/A   Mostly Cloudy
3:50 AM 53.6 °F - 48.2 °F 82% 30.40 in 10.0 mi SW 9.2 mph - N/A   Mostly Cloudy
3:51 AM 54.0 °F - 48.9 °F 83% 29.38 in 10.0 mi SW 8.1 mph - N/A   Mostly Cloudy
3:55 AM 53.6 °F - 48.2 °F 82% 30.40 in 10.0 mi SW 8.1 mph - N/A   Mostly Cloudy
4:00 AM 53.6 °F - 48.2 °F 82% 30.40 in 10.0 mi SSW 11.5 mph - N/A   Mostly Cloudy
4:05 AM 53.6 °F - 48.2 °F 82% 30.40 in 10.0 mi SW 11.5 mph - N/A   Mostly Cloudy
4:10 AM 53.6 °F - 48.2 °F 82% 30.40 in 10.0 mi SW 11.5 mph - N/A   Mostly Cloudy
4:15 AM 53.6 °F - 48.2 °F 82% 30.40 in 10.0 mi SW 11.5 mph 19.6 mph N/A   Mostly Cloudy
4:20 AM 53.6 °F - 48.2 °F 82% 30.40 in 10.0 mi SW 10.4 mph - N/A   Mostly Cloudy
4:25 AM 53.6 °F - 48.2 °F 82% 30.40 in 10.0 mi SW 10.4 mph 16.1 mph N/A   Scattered Clouds
4:30 AM 53.6 °F - 48.2 °F 82% 30.40 in 10.0 mi SW 12.7 mph 19.6 mph N/A   Scattered Clouds
4:35 AM 53.6 °F - 48.2 °F 82% 30.40 in 10.0 mi SW 12.7 mph - N/A   Partly Cloudy
4:40 AM 53.6 °F - 48.2 °F 82% 30.40 in 10.0 mi SW 11.5 mph - N/A   Partly Cloudy
4:45 AM 53.6 °F - 48.2 °F 82% 30.40 in 10.0 mi SW 6.9 mph - N/A   Clear
4:50 AM 53.6 °F - 46.4 °F 77% 30.40 in 10.0 mi SW 8.1 mph - N/A   Clear
4:51 AM 54.0 °F - 46.9 °F 77% 29.40 in 10.0 mi SW 9.2 mph - N/A   Clear
4:55 AM 53.6 °F - 48.2 °F 82% 30.40 in 10.0 mi SW 8.1 mph - N/A   Clear
5:00 AM 53.6 °F - 48.2 °F 82% 30.40 in 10.0 mi SW 9.2 mph - N/A   Clear
5:05 AM 53.6 °F - 48.2 °F 82% 30.40 in 10.0 mi SSW 9.2 mph - N/A   Clear
5:10 AM 53.6 °F - 48.2 °F 82% 30.40 in 10.0 mi SSW 8.1 mph - N/A   Clear
5:15 AM 53.6 °F - 48.2 °F 82% 30.40 in 10.0 mi SSW 8.1 mph - N/A   Partly Cloudy
5:20 AM 53.6 °F - 48.2 °F 82% 30.40 in 10.0 mi SSW 6.9 mph - N/A   Scattered Clouds
5:25 AM 53.6 °F - 48.2 °F 82% 30.40 in 10.0 mi SSW 8.1 mph - N/A   Mostly Cloudy
5:30 AM 53.6 °F - 48.2 °F 82% 29.42 in 10.0 mi SSW 9.2 mph - N/A   Mostly Cloudy
5:35 AM 53.6 °F - 48.2 °F 82% 29.42 in 10.0 mi SW 9.2 mph - N/A   Mostly Cloudy
5:40 AM 53.6 °F - 48.2 °F 82% 30.40 in 10.0 mi SW 8.1 mph - N/A   Mostly Cloudy
5:45 AM 53.6 °F - 46.4 °F 77% 30.40 in 10.0 mi SSW 8.1 mph - N/A   Mostly Cloudy
5:50 AM 53.6 °F - 46.4 °F 77% 30.40 in 10.0 mi SW 10.4 mph - N/A   Scattered Clouds
5:51 AM 53.1 °F - 46.9 °F 80% 29.44 in 10.0 mi SW 9.2 mph 17.3 mph N/A   Scattered Clouds
5:55 AM 53.6 °F - 46.4 °F 77% 30.40 in 10.0 mi SSW 10.4 mph 16.1 mph N/A   Partly Cloudy
6:00 AM 53.6 °F - 46.4 °F 77% 29.43 in 10.0 mi SW 6.9 mph - N/A   Partly Cloudy
6:05 AM 51.8 °F - 46.4 °F 82% 30.40 in 10.0 mi SSW 5.8 mph - N/A   Partly Cloudy
6:10 AM 51.8 °F - 46.4 °F 82% 30.40 in 10.0 mi SSW 8.1 mph - N/A   Clear
6:15 AM 51.8 °F - 46.4 °F 82% 30.40 in 10.0 mi SSW 9.2 mph - N/A   Clear
6:20 AM 51.8 °F - 46.4 °F 82% 30.40 in 10.0 mi SSW 8.1 mph - N/A   Clear
6:25 AM 51.8 °F - 46.4 °F 82% 30.40 in 10.0 mi South 8.1 mph - N/A   Clear
6:30 AM 51.8 °F - 46.4 °F 82% 30.40 in 10.0 mi South 8.1 mph - N/A   Clear
6:35 AM 51.8 °F - 46.4 °F 82% 30.40 in 10.0 mi South 8.1 mph - N/A   Clear
6:40 AM 50.0 °F - 46.4 °F 87% 30.40 in 10.0 mi South 8.1 mph - N/A   Clear
6:45 AM 51.8 °F - 46.4 °F 82% 30.40 in 10.0 mi South 6.9 mph - N/A   Clear
6:50 AM 51.8 °F - 46.4 °F 82% 30.40 in 10.0 mi SSW 6.9 mph - N/A   Clear
6:51 AM 51.1 °F - 46.0 °F 83% 29.46 in 10.0 mi SSW 8.1 mph - N/A   Clear
6:55 AM 51.8 °F - 46.4 °F 82% 30.40 in 10.0 mi South 8.1 mph - N/A   Clear
7:00 AM 51.8 °F - 46.4 °F 82% 30.40 in 10.0 mi South 8.1 mph - N/A   Clear
7:05 AM 51.8 °F - 46.4 °F 82% 30.40 in 10.0 mi South 9.2 mph - N/A   Clear
7:10 AM 51.8 °F - 46.4 °F 82% 30.40 in 10.0 mi South 10.4 mph 16.1 mph N/A   Clear
7:15 AM 51.8 °F - 46.4 °F 82% 30.40 in 10.0 mi South 8.1 mph - N/A   Clear
7:20 AM 51.8 °F - 46.4 °F 82% 30.40 in 10.0 mi South 11.5 mph - N/A   Clear
7:25 AM 51.8 °F - 46.4 °F 82% 30.40 in 10.0 mi SSW 10.4 mph - N/A   Clear
7:30 AM 51.8 °F - 46.4 °F 82% 30.40 in 10.0 mi SSW 12.7 mph - N/A   Clear
7:35 AM 51.8 °F - 46.4 °F 82% 30.40 in 10.0 mi SSW 11.5 mph - N/A   Clear
7:40 AM 51.8 °F - 46.4 °F 82% 30.40 in 10.0 mi SSW 11.5 mph - N/A   Clear
7:45 AM 51.8 °F - 46.4 °F 82% 30.40 in 10.0 mi SSW 13.8 mph 20.7 mph N/A   Clear
7:50 AM 53.6 °F - 46.4 °F 77% 30.40 in 10.0 mi SSW 9.2 mph - N/A   Clear
7:51 AM 53.1 °F - 46.0 °F 77% 29.49 in 10.0 mi SSW 9.2 mph 20.7 mph N/A   Clear
7:55 AM 53.6 °F - 46.4 °F 77% 30.40 in 10.0 mi SW 11.5 mph - N/A   Clear
8:00 AM 53.6 °F - 46.4 °F 77% 30.40 in 10.0 mi SSW 12.7 mph - N/A   Clear
8:05 AM 53.6 °F - 46.4 °F 77% 30.40 in 10.0 mi SSW 13.8 mph 19.6 mph N/A   Clear
8:10 AM 53.6 °F - 46.4 °F 77% 30.40 in 10.0 mi SSW 15.0 mph 20.7 mph N/A   Clear
8:15 AM 53.6 °F - 46.4 °F 77% 30.40 in 10.0 mi SSW 11.5 mph - N/A   Clear
8:20 AM 53.6 °F - 46.4 °F 77% 30.40 in 10.0 mi SSW 11.5 mph 17.3 mph N/A   Clear
8:25 AM 53.6 °F - 46.4 °F 77% 30.40 in 10.0 mi SSW 10.4 mph 16.1 mph N/A   Clear
8:30 AM 53.6 °F - 46.4 °F 77% 30.40 in 10.0 mi SSW 12.7 mph - N/A   Clear
8:35 AM 53.6 °F - 46.4 °F 77% 30.40 in 10.0 mi SW 11.5 mph - N/A   Clear
8:40 AM 53.6 °F - 46.4 °F 77% 30.40 in 10.0 mi SSW 11.5 mph - N/A   Clear
8:45 AM 53.6 °F - 46.4 °F 77% 30.40 in 10.0 mi SSW 11.5 mph 17.3 mph N/A   Clear
8:50 AM 53.6 °F - 46.4 °F 77% 30.40 in 10.0 mi SSW 12.7 mph - N/A   Clear
8:51 AM 53.6 °F - 46.4 °F 77% 29.50 in 10.0 mi SSW 12.7 mph 20.7 mph N/A   Clear
8:55 AM 53.6 °F - 46.4 °F 77% 29.50 in 10.0 mi South 12.7 mph - N/A   Clear
9:00 AM 53.6 °F - 46.4 °F 77% 30.40 in 10.0 mi SSW 12.7 mph - N/A   Clear
9:05 AM 53.6 °F - 46.4 °F 77% 30.40 in 10.0 mi SSW 11.5 mph - N/A   Clear
9:10 AM 55.4 °F - 46.4 °F 72% 30.40 in 10.0 mi SSW 12.7 mph - N/A   Clear
9:15 AM 55.4 °F - 44.6 °F 67% 30.40 in 10.0 mi SSW 13.8 mph - N/A   Clear
9:20 AM 55.4 °F - 46.4 °F 72% 30.40 in 10.0 mi SSW 15.0 mph - N/A   Clear
9:25 AM 55.4 °F - 46.4 °F 72% 30.40 in 10.0 mi SSW 11.5 mph - N/A   Clear
9:30 AM 55.4 °F - 46.4 °F 72% 30.40 in 10.0 mi SSW 13.8 mph 19.6 mph N/A   Clear
9:35 AM 55.4 °F - 44.6 °F 67% 30.40 in 10.0 mi SSW 16.1 mph 24.2 mph N/A   Clear
9:40 AM 55.4 °F - 46.4 °F 72% 30.40 in 10.0 mi SSW 11.5 mph - N/A   Clear
9:45 AM 55.4 °F - 44.6 °F 67% 30.40 in 10.0 mi SSW 11.5 mph 17.3 mph N/A   Clear
9:50 AM 55.4 °F - 44.6 °F 67% 30.40 in 10.0 mi South 15.0 mph - N/A   Clear
9:51 AM 55.9 °F - 45.0 °F 67% 29.52 in 10.0 mi SSW 12.7 mph 20.7 mph N/A   Clear
9:55 AM 55.4 °F - 44.6 °F 67% 30.40 in 10.0 mi South 16.1 mph - N/A   Clear
10:00 AM 55.4 °F - 44.6 °F 67% 30.40 in 10.0 mi South 15.0 mph - N/A   Clear
10:05 AM 55.4 °F - 44.6 °F 67% 30.40 in 10.0 mi South 10.4 mph - N/A   Clear
10:10 AM 57.2 °F - 44.6 °F 63% 30.40 in 10.0 mi SSW 12.7 mph - N/A   Clear
10:15 AM 57.2 °F - 44.6 °F 63% 30.40 in 10.0 mi SSW 10.4 mph - N/A   Clear
10:20 AM 57.2 °F - 44.6 °F 63% 30.40 in 10.0 mi South 10.4 mph - N/A   Clear
10:25 AM 57.2 °F - 44.6 °F 63% 30.40 in 10.0 mi SSW 15.0 mph - N/A   Partly Cloudy
10:30 AM 57.2 °F - 44.6 °F 63% 30.40 in 10.0 mi SSW 13.8 mph 23.0 mph N/A   Scattered Clouds
10:35 AM 55.4 °F - 44.6 °F 67% 30.40 in 10.0 mi SSW 13.8 mph - N/A   Mostly Cloudy
10:40 AM 57.2 °F - 44.6 °F 63% 30.40 in 10.0 mi South 11.5 mph - N/A   Mostly Cloudy
10:45 AM 57.2 °F - 44.6 °F 63% 30.40 in 10.0 mi SSW 10.4 mph - N/A   Mostly Cloudy
10:50 AM 57.2 °F - 44.6 °F 63% 30.40 in 10.0 mi South 12.7 mph - N/A   Mostly Cloudy
10:51 AM 57.0 °F - 44.1 °F 62% 29.53 in 10.0 mi SSW 12.7 mph - N/A   Overcast
10:55 AM 57.2 °F - 44.6 °F 63% 30.40 in 10.0 mi SSW 13.8 mph 23.0 mph N/A   Overcast
11:00 AM 57.2 °F - 42.8 °F 59% 30.40 in 10.0 mi SW 11.5 mph - N/A   Overcast
11:05 AM 57.2 °F - 44.6 °F 63% 30.40 in 10.0 mi SSW 8.1 mph - N/A   Overcast
11:10 AM 57.2 °F - 44.6 °F 63% 30.40 in 10.0 mi SW 12.7 mph - N/A   Overcast
11:15 AM 57.2 °F - 44.6 °F 63% 30.40 in 10.0 mi SW 15.0 mph - N/A   Overcast
11:20 AM 57.2 °F - 44.6 °F 63% 30.40 in 10.0 mi SW 16.1 mph - N/A   Overcast
11:25 AM 59.0 °F - 44.6 °F 59% 30.40 in 10.0 mi SW 11.5 mph - N/A   Overcast
11:30 AM 60.8 °F - 44.6 °F 55% 30.40 in 10.0 mi SW 15.0 mph - N/A   Overcast
11:35 AM 60.8 °F - 44.6 °F 55% 30.40 in 10.0 mi SSW 18.4 mph 26.5 mph N/A   Overcast
11:40 AM 59.0 °F - 42.8 °F 55% 30.40 in 10.0 mi SW 15.0 mph - N/A   Mostly Cloudy
11:45 AM 57.2 °F - 42.8 °F 59% 30.40 in 10.0 mi SSW 15.0 mph - N/A   Mostly Cloudy
11:50 AM 60.8 °F - 44.6 °F 55% 30.40 in 10.0 mi South 15.0 mph - N/A   Mostly Cloudy
11:51 AM 59.0 °F - 43.0 °F 55% 29.52 in 10.0 mi SSW 16.1 mph 23.0 mph N/A   Mostly Cloudy
11:55 AM 59.0 °F - 42.8 °F 55% 30.40 in 10.0 mi SSW 13.8 mph - N/A   Scattered Clouds
12:00 PM 60.8 °F - 44.6 °F 55% 30.40 in 10.0 mi SSW 13.8 mph 21.9 mph N/A   Scattered Clouds
12:05 PM 60.8 °F - 44.6 °F 55% 30.40 in 10.0 mi SSW 13.8 mph 21.9 mph N/A   Partly Cloudy
12:10 PM 60.8 °F - 42.8 °F 52% 30.40 in 10.0 mi SSW 12.7 mph 19.6 mph N/A   Partly Cloudy
12:15 PM 60.8 °F - 42.8 °F 52% 29.51 in 10.0 mi South 12.7 mph 18.4 mph N/A   Partly Cloudy
12:20 PM 60.8 °F - 42.8 °F 52% 30.40 in 10.0 mi SW 15.0 mph - N/A   Scattered Clouds
12:25 PM 59.0 °F - 42.8 °F 55% 30.40 in 10.0 mi SSW 12.7 mph - N/A   Mostly Cloudy
12:30 PM 60.8 °F - 42.8 °F 52% 30.40 in 10.0 mi South 13.8 mph - N/A   Mostly Cloudy
12:35 PM 60.8 °F - 42.8 °F 52% 30.40 in 10.0 mi SW 13.8 mph - N/A   Mostly Cloudy
12:40 PM 60.8 °F - 42.8 °F 52% 30.40 in 10.0 mi South 16.1 mph - N/A   Mostly Cloudy
12:45 PM 60.8 °F - 42.8 °F 52% 30.40 in 10.0 mi SSW 11.5 mph - N/A   Mostly Cloudy
12:50 PM 60.8 °F - 42.8 °F 52% 30.40 in 10.0 mi SSW 17.3 mph 24.2 mph N/A   Mostly Cloudy
12:51 PM 61.0 °F - 42.1 °F 50% 29.50 in 10.0 mi SSW 16.1 mph 24.2 mph N/A   Mostly Cloudy
12:55 PM 60.8 °F - 42.8 °F 52% 30.40 in 10.0 mi South 15.0 mph - N/A   Mostly Cloudy
1:00 PM 62.6 °F - 42.8 °F 48% 30.40 in 10.0 mi South 16.1 mph - N/A   Mostly Cloudy
1:05 PM 60.8 °F - 42.8 °F 52% 30.40 in 10.0 mi SSW 17.3 mph - N/A   Mostly Cloudy
1:10 PM 60.8 °F - 42.8 °F 52% 30.40 in 10.0 mi SW 13.8 mph 19.6 mph N/A   Mostly Cloudy
1:15 PM 60.8 °F - 42.8 °F 52% 29.50 in 10.0 mi SSW 15.0 mph 21.9 mph N/A   Mostly Cloudy
1:20 PM 60.8 °F - 42.8 °F 52% 29.49 in 10.0 mi South 15.0 mph - N/A   Mostly Cloudy
1:25 PM 60.8 °F - 42.8 °F 52% 30.40 in 10.0 mi SW 12.7 mph - N/A   Overcast
1:30 PM 62.6 °F - 42.8 °F 48% 30.40 in 10.0 mi SSW 13.8 mph 20.7 mph N/A   Overcast
1:35 PM 62.6 °F - 42.8 °F 48% 30.40 in 10.0 mi SSW 11.5 mph - N/A   Mostly Cloudy
1:40 PM 62.6 °F - 42.8 °F 48% 30.40 in 10.0 mi SSW 10.4 mph - N/A   Mostly Cloudy
1:45 PM 62.6 °F - 42.8 °F 48% 29.48 in 10.0 mi SW 15.0 mph - N/A   Scattered Clouds
1:50 PM 62.6 °F - 41.0 °F 45% 30.40 in 10.0 mi SSW 18.4 mph 26.5 mph N/A   Scattered Clouds
1:51 PM 63.0 °F - 41.0 °F 45% 29.48 in 10.0 mi SSW 20.7 mph 29.9 mph N/A   Scattered Clouds
1:55 PM 62.6 °F - 41.0 °F 45% 30.40 in 10.0 mi SSW 17.3 mph - N/A   Scattered Clouds
2:00 PM 62.6 °F - 41.0 °F 45% 30.40 in 10.0 mi SSW 17.3 mph 24.2 mph N/A   Scattered Clouds
2:05 PM 62.6 °F - 41.0 °F 45% 30.40 in 10.0 mi SW 17.3 mph - N/A   Scattered Clouds
2:10 PM 62.6 °F - 39.2 °F 42% 30.40 in 10.0 mi SW 17.3 mph 28.8 mph N/A   Scattered Clouds
2:15 PM 62.6 °F - 39.2 °F 42% 30.40 in 10.0 mi SW 17.3 mph 25.3 mph N/A   Scattered Clouds
2:20 PM 62.6 °F - 39.2 °F 42% 30.40 in 10.0 mi SW 15.0 mph - N/A   Scattered Clouds
2:25 PM 62.6 °F - 39.2 °F 42% 30.40 in 10.0 mi SW 10.4 mph - N/A   Partly Cloudy
2:30 PM 62.6 °F - 41.0 °F 45% 30.40 in 10.0 mi SSW 12.7 mph 20.7 mph N/A   Partly Cloudy
2:35 PM 62.6 °F - 39.2 °F 42% 30.40 in 10.0 mi SSW 16.1 mph 25.3 mph N/A   Scattered Clouds
2:40 PM 62.6 °F - 39.2 °F 42% 30.40 in 10.0 mi SSW 16.1 mph - N/A   Partly Cloudy
2:45 PM 62.6 °F - 39.2 °F 42% 30.40 in 10.0 mi SSW 17.3 mph - N/A   Partly Cloudy
2:50 PM 62.6 °F - 39.2 °F 42% 30.40 in 10.0 mi SW 16.1 mph 23.0 mph N/A   Partly Cloudy
2:51 PM 63.0 °F - 39.0 °F 41% 29.48 in 10.0 mi SW 16.1 mph 28.8 mph N/A   Partly Cloudy
2:55 PM 62.6 °F - 39.2 °F 42% 30.40 in 10.0 mi SW 15.0 mph 21.9 mph N/A   Partly Cloudy
3:00 PM 62.6 °F - 39.2 °F 42% 30.40 in 10.0 mi SW 17.3 mph - N/A   Partly Cloudy
3:05 PM 62.6 °F - 39.2 °F 42% 30.40 in 10.0 mi SSW 12.7 mph 29.9 mph N/A   Partly Cloudy
3:10 PM 62.6 °F - 39.2 °F 42% 30.40 in 10.0 mi SSW 20.7 mph 27.6 mph N/A   Partly Cloudy
3:15 PM 62.6 °F - 39.2 °F 42% 30.40 in 10.0 mi SSW 16.1 mph - N/A   Partly Cloudy
3:20 PM 62.6 °F - 39.2 °F 42% 30.40 in 10.0 mi SSW 16.1 mph 21.9 mph N/A   Partly Cloudy
3:25 PM 62.6 °F - 39.2 °F 42% 30.40 in 10.0 mi SSW 17.3 mph 24.2 mph N/A   Scattered Clouds
3:30 PM 62.6 °F - 39.2 °F 42% 30.40 in 10.0 mi SSW 13.8 mph - N/A   Partly Cloudy
3:35 PM 62.6 °F - 39.2 °F 42% 30.40 in 10.0 mi SSW 17.3 mph - N/A   Partly Cloudy
3:40 PM 62.6 °F - 39.2 °F 42% 30.40 in 10.0 mi SSW 16.1 mph - N/A   Partly Cloudy
3:45 PM 62.6 °F - 39.2 °F 42% 30.40 in 10.0 mi South 10.4 mph - N/A   Partly Cloudy
3:50 PM 62.6 °F - 39.2 °F 42% 29.47 in 10.0 mi SSW 13.8 mph 20.7 mph N/A   Clear
3:51 PM 62.6 °F - 39.2 °F 42% 29.48 in 10.0 mi SSW 19.6 mph 26.5 mph N/A   Clear
3:55 PM 62.6 °F - 37.4 °F 39% 30.40 in 10.0 mi SSW 13.8 mph - N/A   Clear
4:00 PM 60.8 °F - 37.4 °F 42% 30.40 in 10.0 mi SSW 11.5 mph - N/A   Partly Cloudy
4:05 PM 62.6 °F - 37.4 °F 39% 30.40 in 10.0 mi SSW 16.1 mph - N/A   Partly Cloudy
4:10 PM 62.6 °F - 37.4 °F 39% 30.40 in 10.0 mi SSW 16.1 mph 21.9 mph N/A   Partly Cloudy
4:15 PM 60.8 °F - 37.4 °F 42% 30.40 in 10.0 mi SSW 17.3 mph - N/A   Partly Cloudy
4:20 PM 60.8 °F - 37.4 °F 42% 30.40 in 10.0 mi SSW 17.3 mph - N/A   Partly Cloudy
4:25 PM 62.6 °F - 37.4 °F 39% 30.40 in 10.0 mi SW 13.8 mph 19.6 mph N/A   Scattered Clouds
4:30 PM 60.8 °F - 37.4 °F 42% 30.40 in 10.0 mi SW 19.6 mph 25.3 mph N/A   Partly Cloudy
4:35 PM 60.8 °F - 37.4 °F 42% 30.40 in 10.0 mi SSW 26.5 mph 38.0 mph N/A   Partly Cloudy
4:40 PM 59.0 °F - 37.4 °F 45% 30.40 in 10.0 mi SSW 24.2 mph 33.4 mph N/A   Partly Cloudy
4:45 PM 59.0 °F - 37.4 °F 45% 30.40 in 10.0 mi South 17.3 mph 28.8 mph N/A   Partly Cloudy
4:50 PM 57.2 °F - 39.2 °F 51% 30.40 in 10.0 mi South 16.1 mph - N/A   Clear
4:51 PM 57.9 °F - 39.0 °F 49% 29.50 in 10.0 mi South 15.0 mph 28.8 mph N/A   Clear
4:55 PM 57.2 °F - 39.2 °F 51% 30.40 in 10.0 mi South 16.1 mph 23.0 mph N/A   Clear
5:00 PM 57.2 °F - 39.2 °F 51% 30.40 in 10.0 mi SSW 12.7 mph 20.7 mph N/A   Clear
5:05 PM 57.2 °F - 39.2 °F 51% 30.40 in 10.0 mi SW 16.1 mph - N/A   Clear
5:10 PM 57.2 °F - 39.2 °F 51% 30.40 in 10.0 mi SW 17.3 mph 26.5 mph N/A   Clear
5:15 PM 55.4 °F - 39.2 °F 54% 30.40 in 10.0 mi SSW 18.4 mph 24.2 mph N/A   Clear
5:20 PM 55.4 °F - 41.0 °F 58% 30.40 in 10.0 mi SW 15.0 mph - N/A   Partly Cloudy
5:25 PM 55.4 °F - 41.0 °F 58% 30.40 in 10.0 mi SW 17.3 mph 25.3 mph N/A   Scattered Clouds
5:30 PM 55.4 °F - 41.0 °F 58% 30.40 in 10.0 mi SW 16.1 mph - N/A   Scattered Clouds
5:35 PM 55.4 °F - 41.0 °F 58% 30.40 in 10.0 mi SSW 16.1 mph - N/A   Partly Cloudy
5:40 PM 55.4 °F - 41.0 °F 58% 30.40 in 10.0 mi SSW 17.3 mph 24.2 mph N/A   Partly Cloudy
5:45 PM 55.4 °F - 41.0 °F 58% 30.40 in 10.0 mi SSW 11.5 mph - N/A   Partly Cloudy
5:50 PM 55.4 °F - 41.0 °F 58% 30.40 in 10.0 mi SW 10.4 mph - N/A   Partly Cloudy
5:51 PM 55.0 °F - 41.0 °F 59% 29.52 in 10.0 mi SSW 9.2 mph 18.4 mph N/A   Partly Cloudy
5:55 PM 55.4 °F - 41.0 °F 58% 30.40 in 10.0 mi SSW 13.8 mph 19.6 mph N/A   Partly Cloudy
6:00 PM 55.4 °F - 41.0 °F 58% 30.40 in 10.0 mi SSW 6.9 mph - N/A   Partly Cloudy
6:05 PM 55.4 °F - 41.0 °F 58% 30.40 in 10.0 mi SSW 12.7 mph - N/A   Partly Cloudy
6:10 PM 55.4 °F - 41.0 °F 58% 30.40 in 10.0 mi SSW 12.7 mph 18.4 mph N/A   Partly Cloudy
6:15 PM 55.4 °F - 41.0 °F 58% 30.40 in 10.0 mi SSW 10.4 mph - N/A   Partly Cloudy
6:20 PM 55.4 °F - 41.0 °F 58% 30.40 in 10.0 mi SSW 10.4 mph - N/A   Clear
6:25 PM 55.4 °F - 41.0 °F 58% 30.40 in 10.0 mi SSW 9.2 mph - N/A   Clear
6:30 PM 53.6 °F - 41.0 °F 62% 30.40 in 10.0 mi SSW 15.0 mph - N/A   Clear
6:35 PM 55.4 °F - 41.0 °F 58% 30.41 in 10.0 mi SSW 11.5 mph - N/A   Partly Cloudy
6:40 PM 53.6 °F - 41.0 °F 62% 30.41 in 10.0 mi SSW 9.2 mph - N/A   Partly Cloudy
6:45 PM 55.4 °F - 41.0 °F 58% 30.41 in 10.0 mi SW 11.5 mph - N/A   Clear
6:50 PM 55.4 °F - 41.0 °F 58% 30.41 in 10.0 mi SSW 9.2 mph - N/A   Clear
6:51 PM 55.0 °F - 41.0 °F 59% 29.55 in 10.0 mi SW 10.4 mph 17.3 mph N/A   Partly Cloudy
6:55 PM 55.4 °F - 41.0 °F 58% 30.41 in 10.0 mi SSW 9.2 mph - N/A   Partly Cloudy
7:00 PM 55.4 °F - 41.0 °F 58% 30.41 in 10.0 mi SSW 9.2 mph - N/A   Scattered Clouds
7:05 PM 55.4 °F - 41.0 °F 58% 30.41 in 10.0 mi SW 6.9 mph - N/A   Mostly Cloudy
7:10 PM 55.4 °F - 41.0 °F 58% 30.41 in 10.0 mi SW 9.2 mph - N/A   Mostly Cloudy
7:15 PM 55.4 °F - 42.8 °F 63% 30.41 in 10.0 mi SW 8.1 mph - N/A   Mostly Cloudy
7:20 PM 55.4 °F - 42.8 °F 63% 30.41 in 10.0 mi SW 8.1 mph - N/A   Overcast
7:25 PM 55.4 °F - 42.8 °F 63% 30.41 in 10.0 mi SSW 5.8 mph - N/A   Overcast
7:30 PM 55.4 °F - 42.8 °F 63% 30.41 in 10.0 mi SW 5.8 mph - N/A   Overcast
7:35 PM 53.6 °F - 42.8 °F 67% 30.41 in 7.0 mi West 11.5 mph 18.4 mph N/A   Overcast
7:40 PM 51.8 °F - 44.6 °F 76% 30.41 in 5.0 mi West 9.2 mph - 0.03 in   Overcast
7:45 PM 50.0 °F - 44.6 °F 82% 30.41 in 6.0 mi West 6.9 mph - 0.03 in   Overcast
7:50 PM 50.0 °F - 44.6 °F 82% 30.41 in 10.0 mi West 8.1 mph - 0.03 in   Mostly Cloudy
7:51 PM 48.9 °F - 44.1 °F 83% 29.58 in 10.0 mi West 5.8 mph - 0.03 in   Mostly Cloudy
7:55 PM 48.2 °F - 44.6 °F 87% 30.41 in 10.0 mi WSW 3.5 mph - 10.00 in   Scattered Clouds
8:00 PM 48.2 °F - 44.6 °F 87% 30.41 in 10.0 mi WSW 3.5 mph - N/A   Scattered Clouds
8:05 PM 48.2 °F - 44.6 °F 87% 30.41 in 10.0 mi South 3.5 mph - N/A   Partly Cloudy
8:10 PM 48.2 °F - 44.6 °F 87% 29.57 in 10.0 mi SSE 3.5 mph - N/A   Clear
8:15 PM 46.4 °F 45.2 °F 46.4 °F 100% 30.41 in 10.0 mi SSE 3.5 mph - N/A   Partly Cloudy
8:20 PM 46.4 °F - 46.4 °F 100% 30.41 in 10.0 mi Calm Calm - N/A   Partly Cloudy
8:25 PM 46.4 °F - 46.4 °F 100% 30.41 in 10.0 mi Calm Calm - N/A   Scattered Clouds
8:30 PM 46.4 °F - 46.4 °F 100% 30.41 in 10.0 mi Calm Calm - N/A   Mostly Cloudy
8:35 PM 46.4 °F - 46.4 °F 100% 30.41 in 10.0 mi Calm Calm - N/A   Mostly Cloudy
8:40 PM 46.4 °F 45.2 °F 44.6 °F 93% 30.41 in 10.0 mi ENE 3.5 mph - N/A   Mostly Cloudy
8:45 PM 46.4 °F 45.2 °F 44.6 °F 93% 30.41 in 10.0 mi NE 3.5 mph - N/A   Mostly Cloudy
8:50 PM 48.2 °F - 46.4 °F 93% 30.41 in 10.0 mi ENE 3.5 mph - N/A   Overcast
8:51 PM 48.0 °F - 46.0 °F 93% 29.59 in 10.0 mi ENE 3.5 mph - N/A   Mostly Cloudy
8:55 PM 48.2 °F - 46.4 °F 93% 30.41 in 10.0 mi East 3.5 mph - N/A   Mostly Cloudy
9:00 PM 46.4 °F 45.2 °F 44.6 °F 93% 30.41 in 10.0 mi East 3.5 mph - N/A   Scattered Clouds
9:05 PM 46.4 °F - 44.6 °F 93% 30.41 in 10.0 mi Calm Calm - N/A   Scattered Clouds
9:10 PM 46.4 °F - 44.6 °F 93% 30.41 in 10.0 mi Calm Calm - N/A   Scattered Clouds
9:15 PM 46.4 °F 44.3 °F 44.6 °F 93% 30.41 in 10.0 mi SE 4.6 mph - N/A   Scattered Clouds
9:20 PM 46.4 °F 43.5 °F 44.6 °F 93% 30.41 in 10.0 mi SSE 5.8 mph - N/A   Scattered Clouds
9:25 PM 46.4 °F 42.9 °F 44.6 °F 93% 30.41 in 10.0 mi South 6.9 mph - N/A   Scattered Clouds
9:30 PM 48.2 °F - 44.6 °F 87% 30.41 in 10.0 mi South 4.6 mph - N/A   Scattered Clouds
9:35 PM 48.2 °F - 44.6 °F 87% 30.41 in 10.0 mi South 8.1 mph - N/A   Scattered Clouds
9:40 PM 48.2 °F - 42.8 °F 82% 30.41 in 10.0 mi South 6.9 mph - N/A   Partly Cloudy
9:45 PM 48.2 °F - 42.8 °F 82% 30.41 in 10.0 mi South 6.9 mph - N/A   Partly Cloudy
9:50 PM 48.2 °F - 42.8 °F 82% 30.41 in 10.0 mi South 5.8 mph - N/A   Partly Cloudy
9:51 PM 50.0 °F - 43.0 °F 77% 29.60 in 10.0 mi South 5.8 mph - N/A   Partly Cloudy
9:55 PM 51.8 °F - 42.8 °F 71% 30.41 in 10.0 mi South 9.2 mph - N/A   Clear
10:00 PM 51.8 °F - 41.0 °F 67% 30.41 in 10.0 mi SSW 10.4 mph - N/A   Clear
10:05 PM 53.6 °F - 41.0 °F 62% 29.59 in 10.0 mi SSW 9.2 mph - N/A   Clear
10:10 PM 51.8 °F - 41.0 °F 67% 30.41 in 10.0 mi SSW 11.5 mph - N/A   Clear
10:15 PM 53.6 °F - 39.2 °F 58% 30.41 in 10.0 mi SSW 9.2 mph - N/A   Clear
10:20 PM 53.6 °F - 39.2 °F 58% 30.41 in 10.0 mi SSW 10.4 mph - N/A   Scattered Clouds
10:25 PM 53.6 °F - 39.2 °F 58% 30.41 in 10.0 mi SSW 9.2 mph - N/A   Mostly Cloudy
10:30 PM 53.6 °F - 39.2 °F 58% 30.41 in 10.0 mi SSW 11.5 mph - N/A   Mostly Cloudy
10:35 PM 53.6 °F - 39.2 °F 58% 30.41 in 10.0 mi SSW 8.1 mph - N/A   Mostly Cloudy
10:40 PM 53.6 °F - 39.2 °F 58% 30.41 in 10.0 mi SSW 11.5 mph - N/A   Mostly Cloudy
10:45 PM 53.6 °F - 39.2 °F 58% 30.41 in 10.0 mi SSW 10.4 mph - N/A   Mostly Cloudy
10:50 PM 53.6 °F - 39.2 °F 58% 30.41 in 10.0 mi SSW 9.2 mph - N/A   Mostly Cloudy
10:51 PM 54.0 °F - 39.0 °F 57% 29.60 in 10.0 mi SW 11.5 mph - N/A   Mostly Cloudy
10:55 PM 53.6 °F - 39.2 °F 58% 30.41 in 10.0 mi SW 11.5 mph 18.4 mph N/A   Mostly Cloudy
11:00 PM 53.6 °F - 39.2 °F 58% 30.41 in 10.0 mi SSW 10.4 mph - N/A   Mostly Cloudy
11:05 PM 53.6 °F - 39.2 °F 58% 30.41 in 10.0 mi SSW 10.4 mph - N/A   Mostly Cloudy
11:10 PM 53.6 °F - 39.2 °F 58% 30.41 in 10.0 mi SSW 11.5 mph - N/A   Mostly Cloudy
11:15 PM 53.6 °F - 39.2 °F 58% 30.41 in 10.0 mi SSW 10.4 mph - N/A   Overcast
11:20 PM 53.6 °F - 39.2 °F 58% 30.41 in 10.0 mi SSW 11.5 mph 17.3 mph N/A   Overcast
11:25 PM 53.6 °F - 39.2 °F 58% 30.41 in 10.0 mi SW 9.2 mph - N/A   Overcast
11:30 PM 53.6 °F - 39.2 °F 58% 30.41 in 10.0 mi SW 8.1 mph - N/A   Overcast
11:35 PM 53.6 °F - 39.2 °F 58% 30.41 in 10.0 mi SW 9.2 mph - N/A   Overcast
11:40 PM 53.6 °F - 39.2 °F 58% 30.41 in 10.0 mi SW 9.2 mph - N/A   Overcast
11:45 PM 53.6 °F - 39.2 °F 58% 30.41 in 10.0 mi SW 8.1 mph - N/A   Overcast
11:50 PM 53.6 °F - 39.2 °F 58% 30.41 in 10.0 mi SW 8.1 mph - N/A   Overcast
11:51 PM 54.0 °F - 39.0 °F 57% 29.61 in 10.0 mi SW 9.2 mph - N/A   Overcast
11:55 PM 53.6 °F - 39.2 °F 58% 30.41 in 10.0 mi SW 6.9 mph - N/A   Overcast